,,,PA_Meas_PMT16A,,PR_Meas_QMR101_102,,RH_Meas_QMH101,,SR_Meas_QMS101,,TA_Meas_QMH101,,GenWind,,GenWind,
date,time,status,PA,status,PR,status,RH,status,SR,status,TA,status,DirAvg,status,SpdAvg,
2011-08-17, 00:00:05,VALID,1003.75,VALID,0,INVALID,163.685,VALID,0,VALID,24.7919,VALID,348,VALID,0,
2011-08-17, 00:01:05,VALID,1003.75,VALID,0,INVALID,163.716,VALID,0,VALID,24.7919,VALID,347,VALID,0,
2011-08-17, 00:02:05,VALID,1003.73,VALID,0,INVALID,163.708,VALID,0,VALID,24.8132,VALID,347,VALID,0,
2011-08-17, 00:03:05,VALID,1003.71,VALID,0,INVALID,163.678,VALID,0,VALID,24.7919,VALID,346,VALID,0,
2011-08-17, 00:04:05,VALID,1003.7,VALID,0,INVALID,163.701,VALID,0,VALID,24.7724,VALID,344,VALID,0,
2011-08-17, 00:05:05,VALID,1003.7,VALID,0,INVALID,163.746,VALID,0,VALID,24.7724,VALID,344,VALID,0,
2011-08-17, 00:06:05,VALID,1003.7,VALID,0,INVALID,163.678,VALID,0,VALID,24.7724,VALID,344,VALID,0,
2011-08-17, 00:07:05,VALID,1003.66,VALID,0,INVALID,163.685,VALID,0,VALID,24.7724,VALID,344,VALID,0,
2011-08-17, 00:08:05,VALID,1003.68,VALID,0,INVALID,163.678,VALID,0,VALID,24.7724,VALID,352,VALID,0,
2011-08-17, 00:09:05,VALID,1003.67,VALID,0,INVALID,163.678,VALID,0,VALID,24.8132,VALID,349,VALID,0,
2011-08-17, 00:10:05,VALID,1003.67,VALID,0,INVALID,163.662,VALID,0,VALID,24.8113,VALID,349,VALID,0,
2011-08-17, 00:11:05,VALID,1003.62,VALID,0,INVALID,163.723,VALID,0,VALID,24.8308,VALID,350,VALID,0,
2011-08-17, 00:12:05,VALID,1003.66,VALID,0,INVALID,163.655,VALID,0,VALID,24.8503,VALID,341,VALID,0,
2011-08-17, 00:13:05,VALID,1003.62,VALID,0,INVALID,163.678,VALID,0,VALID,24.8697,VALID,341,VALID,0,
2011-08-17, 00:14:05,VALID,1003.61,VALID,0,INVALID,163.67,VALID,0,VALID,24.8697,VALID,338,VALID,0,
2011-08-17, 00:15:05,VALID,1003.6,VALID,0,INVALID,163.67,VALID,0,VALID,24.9087,VALID,299,VALID,0,
2011-08-17, 00:16:05,VALID,1003.6,VALID,0,INVALID,163.67,VALID,0,VALID,24.9476,VALID,253,VALID,0,
2011-08-17, 00:17:05,VALID,1003.59,VALID,0,INVALID,163.655,VALID,0,VALID,25.0274,VALID,292,VALID,0,
2011-08-17, 00:18:05,VALID,1003.59,VALID,0,INVALID,163.662,VALID,0,VALID,25.0663,VALID,265,VALID,0,
2011-08-17, 00:19:05,VALID,1003.56,VALID,0,INVALID,163.655,VALID,0,VALID,25.1053,VALID,265,VALID,0,
2011-08-17, 00:20:05,VALID,1003.59,VALID,0,INVALID,163.655,VALID,0,VALID,25.1034,VALID,265,VALID,0,
2011-08-17, 00:21:05,VALID,1003.59,VALID,0,INVALID,163.655,VALID,0,VALID,25.1423,VALID,282,VALID,0,
2011-08-17, 00:22:05,VALID,1003.57,VALID,0,INVALID,163.639,VALID,0,VALID,25.1423,VALID,342,VALID,0,
2011-08-17, 00:23:05,VALID,1003.57,VALID,0,INVALID,163.678,VALID,0,VALID,25.1832,VALID,346,VALID,0,
2011-08-17, 00:24:05,VALID,1003.57,VALID,0,INVALID,163.693,VALID,0,VALID,25.1618,VALID,347,VALID,0,
2011-08-17, 00:25:05,VALID,1003.57,VALID,0,INVALID,163.708,VALID,0,VALID,25.1229,VALID,347,VALID,0,
2011-08-17, 00:26:05,VALID,1003.52,VALID,0,INVALID,163.662,VALID,0,VALID,25.0839,VALID,347,VALID,0,
2011-08-17, 00:27:05,VALID,1003.49,VALID,0,INVALID,163.685,VALID,0,VALID,25.0644,VALID,353,VALID,0,
2011-08-17, 00:28:04,VALID,1003.48,VALID,0,INVALID,163.67,VALID,0,VALID,25.006,VALID,276,VALID,0,
2011-08-17, 00:29:04,VALID,1003.47,VALID,0,INVALID,163.678,VALID,0,VALID,24.9866,VALID,347,VALID,0,
2011-08-17, 00:30:04,VALID,1003.44,VALID,0,INVALID,163.678,VALID,0,VALID,25.006,VALID,347,VALID,0,
2011-08-17, 00:31:04,VALID,1003.43,VALID,0,INVALID,163.67,VALID,0.100563,VALID,25.006,VALID,347,VALID,0,
2011-08-17, 00:32:04,VALID,1003.46,VALID,0,INVALID,163.67,VALID,0,VALID,24.9866,VALID,330,VALID,0,
2011-08-17, 00:33:04,VALID,1003.4,VALID,0,INVALID,163.716,VALID,0,VALID,24.9866,VALID,294,VALID,0,
2011-08-17, 00:34:04,VALID,1003.38,VALID,0,INVALID,163.67,VALID,0,VALID,25.006,VALID,300,VALID,0,
2011-08-17, 00:35:04,VALID,1003.39,VALID,0,INVALID,163.67,VALID,0,VALID,25.045,VALID,298,VALID,0,
2011-08-17, 00:36:04,VALID,1003.37,VALID,0,INVALID,163.678,VALID,0,VALID,25.0644,VALID,348,VALID,0,
2011-08-17, 00:37:04,VALID,1003.36,VALID,0,INVALID,163.655,VALID,0,VALID,25.0625,VALID,349,VALID,0,
2011-08-17, 00:38:04,VALID,1003.34,VALID,0,INVALID,163.693,VALID,0,VALID,25.1034,VALID,350,VALID,0,
2011-08-17, 00:39:04,VALID,1003.34,VALID,0,INVALID,163.662,VALID,0,VALID,25.1229,VALID,347,VALID,0,
2011-08-17, 00:40:04,VALID,1003.36,VALID,0,INVALID,163.624,VALID,0.100563,VALID,25.1229,VALID,354,VALID,0,
2011-08-17, 00:41:04,VALID,1003.36,VALID,0,INVALID,163.632,VALID,0,VALID,25.1442,VALID,356,VALID,0,
2011-08-17, 00:42:04,VALID,1003.35,VALID,0,INVALID,163.708,VALID,0,VALID,25.1034,VALID,353,VALID,0,
2011-08-17, 00:43:04,VALID,1003.35,VALID,0,INVALID,163.662,VALID,0,VALID,25.0644,VALID,352,VALID,0,
2011-08-17, 00:44:04,VALID,1003.36,VALID,0,INVALID,163.685,VALID,0,VALID,25.0274,VALID,352,VALID,0,
2011-08-17, 00:45:04,VALID,1003.34,VALID,0,INVALID,163.655,VALID,0.100563,VALID,24.9671,VALID,353,VALID,0,
2011-08-17, 00:46:04,VALID,1003.32,VALID,0,INVALID,163.685,VALID,0,VALID,24.9282,VALID,352,VALID,0,
2011-08-17, 00:47:04,VALID,1003.29,VALID,0,INVALID,163.639,VALID,0,VALID,24.8679,VALID,349,VALID,0,
2011-08-17, 00:48:04,VALID,1003.27,VALID,0,INVALID,163.708,VALID,0,VALID,24.8289,VALID,324,VALID,0,
2011-08-17, 00:49:04,VALID,1003.27,VALID,0,INVALID,163.685,VALID,0,VALID,24.8308,VALID,324,VALID,0,
2011-08-17, 00:50:04,VALID,1003.23,VALID,0,INVALID,163.693,VALID,0,VALID,24.8113,VALID,324,VALID,0,
2011-08-17, 00:51:04,VALID,1003.22,VALID,0,INVALID,163.662,VALID,0,VALID,24.8308,VALID,324,VALID,0,
2011-08-17, 00:52:04,VALID,1003.17,VALID,0,INVALID,163.685,VALID,0.100563,VALID,24.8327,VALID,337,VALID,0,
2011-08-17, 00:53:04,VALID,1003.17,VALID,0,INVALID,163.678,VALID,0,VALID,24.79,VALID,337,VALID,0,
2011-08-17, 00:54:04,VALID,1003.18,VALID,0,INVALID,163.67,VALID,0,VALID,24.8308,VALID,346,VALID,0,
2011-08-17, 00:55:04,VALID,1003.15,VALID,0,INVALID,163.67,VALID,0.100563,VALID,24.8289,VALID,346,VALID,0,
2011-08-17, 00:56:04,VALID,1003.12,VALID,0,INVALID,163.685,VALID,0,VALID,24.8911,VALID,344,VALID,0,
2011-08-17, 00:57:04,VALID,1003.12,VALID,0,INVALID,163.67,VALID,0,VALID,24.8892,VALID,4,VALID,0,
2011-08-17, 00:58:04,VALID,1003.13,VALID,0,INVALID,163.678,VALID,0,VALID,24.9087,VALID,2,VALID,0,
2011-08-17, 00:59:04,VALID,1003.12,VALID,0,INVALID,163.685,VALID,0,VALID,24.9282,VALID,2,VALID,0,
2011-08-17, 01:00:04,VALID,1003.12,VALID,0,INVALID,163.662,VALID,0,VALID,24.9476,VALID,2,VALID,0,
2011-08-17, 01:01:04,VALID,1003.13,VALID,0,INVALID,163.662,VALID,0,VALID,24.9476,VALID,352,VALID,0,
2011-08-17, 01:02:04,VALID,1003.1,VALID,0,INVALID,163.678,VALID,0,VALID,24.9671,VALID,352,VALID,0,
2011-08-17, 01:03:04,VALID,1003.09,VALID,0,INVALID,163.662,VALID,0,VALID,25.006,VALID,324,VALID,0,
2011-08-17, 01:04:04,VALID,1003.07,VALID,0,INVALID,163.647,VALID,0,VALID,25.0255,VALID,353,VALID,0,
2011-08-17, 01:05:04,VALID,1003.04,VALID,0,INVALID,163.708,VALID,0,VALID,25.0236,VALID,340,VALID,0,
2011-08-17, 01:06:04,VALID,1003.04,VALID,0,INVALID,163.662,VALID,0,VALID,25.0644,VALID,342,VALID,0,
2011-08-17, 01:07:04,VALID,1003.02,VALID,0,INVALID,163.67,VALID,0,VALID,25.0839,VALID,9,VALID,0,
2011-08-17, 01:08:04,VALID,1003.02,VALID,0,INVALID,163.678,VALID,0,VALID,25.1248,VALID,337,VALID,0,
2011-08-17, 01:09:04,VALID,1003.01,VALID,0,INVALID,163.678,VALID,0,VALID,25.1229,VALID,351,VALID,0,
2011-08-17, 01:10:04,VALID,1003.01,VALID,0,INVALID,163.708,VALID,0,VALID,25.1229,VALID,338,VALID,0,
2011-08-17, 01:11:04,VALID,1003.01,VALID,0,INVALID,163.662,VALID,0,VALID,25.1423,VALID,355,VALID,0,
2011-08-17, 01:12:04,VALID,1003.02,VALID,0,INVALID,163.685,VALID,0,VALID,25.1832,VALID,349,VALID,0,
2011-08-17, 01:13:04,VALID,1003.02,VALID,0,INVALID,163.647,VALID,0,VALID,25.1813,VALID,5,VALID,0,
2011-08-17, 01:14:04,VALID,1003,VALID,0,INVALID,163.647,VALID,0,VALID,25.2221,VALID,1,VALID,0,
2011-08-17, 01:15:04,VALID,1003.03,VALID,0,INVALID,163.693,VALID,0,VALID,25.2397,VALID,340,VALID,0,
2011-08-17, 01:16:04,VALID,1003.01,VALID,0,INVALID,163.655,VALID,0,VALID,25.2592,VALID,336,VALID,0,
2011-08-17, 01:17:04,VALID,1003.06,VALID,0,INVALID,163.678,VALID,0,VALID,25.3,VALID,349,VALID,0,
2011-08-17, 01:18:04,VALID,1003.06,VALID,0,INVALID,163.716,VALID,0,VALID,25.2572,VALID,349,VALID,0,
2011-08-17, 01:19:04,VALID,1003.06,VALID,0,INVALID,163.655,VALID,0,VALID,25.2786,VALID,342,VALID,0,
2011-08-17, 01:20:04,VALID,1003.05,VALID,0,INVALID,163.701,VALID,0,VALID,25.2786,VALID,343,VALID,0,
2011-08-17, 01:21:04,VALID,1003.07,VALID,0,INVALID,163.639,VALID,0,VALID,25.3176,VALID,357,VALID,0,
2011-08-17, 01:22:04,VALID,1003.02,VALID,0,INVALID,163.632,VALID,0,VALID,25.3176,VALID,352,VALID,0,
2011-08-17, 01:23:04,VALID,1003.07,VALID,0,INVALID,163.693,VALID,0,VALID,25.3584,VALID,312,VALID,0,
2011-08-17, 01:24:04,VALID,1003.05,VALID,0,INVALID,163.632,VALID,0,VALID,25.3779,VALID,347,VALID,0,
2011-08-17, 01:25:04,VALID,1003,VALID,0,INVALID,163.639,VALID,0,VALID,25.3955,VALID,345,VALID,0,
2011-08-17, 01:26:04,VALID,1003.05,VALID,0,INVALID,163.632,VALID,0,VALID,25.4149,VALID,300,VALID,0,
2011-08-17, 01:27:04,VALID,1003.03,VALID,0,INVALID,163.639,VALID,0.100563,VALID,25.4344,VALID,342,VALID,0,
2011-08-17, 01:28:04,VALID,1003.05,VALID,0,INVALID,163.647,VALID,0.100563,VALID,25.413,VALID,350,VALID,0,
2011-08-17, 01:29:04,VALID,1003.06,VALID,0,INVALID,163.617,VALID,0,VALID,25.4363,VALID,299,VALID,0,
2011-08-17, 01:30:04,VALID,1003.06,VALID,0,INVALID,163.678,VALID,0,VALID,25.3955,VALID,322,VALID,0,
2011-08-17, 01:31:04,VALID,1003.08,VALID,0,INVALID,163.639,VALID,0,VALID,25.3974,VALID,251,VALID,0,
2011-08-17, 01:32:04,VALID,1003.09,VALID,0,INVALID,163.639,VALID,0,VALID,25.3779,VALID,359,VALID,0,
2011-08-17, 01:33:04,VALID,1003.11,VALID,0,INVALID,163.693,VALID,0,VALID,25.339,VALID,342,VALID,0,
2011-08-17, 01:34:04,VALID,1003.11,VALID,0,INVALID,163.67,VALID,0,VALID,25.2981,VALID,345,VALID,0,
2011-08-17, 01:35:04,VALID,1003.1,VALID,0,INVALID,163.655,VALID,0,VALID,25.2786,VALID,354,VALID,0,
2011-08-17, 01:36:04,VALID,1003.11,VALID,0,INVALID,163.632,VALID,0,VALID,25.2397,VALID,343,VALID,0,
2011-08-17, 01:37:04,VALID,1003.1,VALID,0,INVALID,163.655,VALID,0,VALID,25.1988,VALID,350,VALID,0,
2011-08-17, 01:38:04,VALID,1003.11,VALID,0,INVALID,163.647,VALID,0.100563,VALID,25.1813,VALID,353,VALID,0,
2011-08-17, 01:39:04,VALID,1003.1,VALID,0,INVALID,163.67,VALID,0,VALID,25.1423,VALID,345,VALID,0,
2011-08-17, 01:40:04,VALID,1003.11,VALID,0,INVALID,163.655,VALID,0,VALID,25.1229,VALID,349,VALID,0,
2011-08-17, 01:41:04,VALID,1003.1,VALID,0,INVALID,163.647,VALID,0,VALID,25.1034,VALID,346,VALID,0,
2011-08-17, 01:42:04,VALID,1003.1,VALID,0,INVALID,163.632,VALID,0,VALID,25.0858,VALID,360,VALID,0,
2011-08-17, 01:43:04,VALID,1003.09,VALID,0,INVALID,163.655,VALID,0,VALID,25.0663,VALID,329,VALID,0,
2011-08-17, 01:44:04,VALID,1003.07,VALID,0,INVALID,163.655,VALID,0,VALID,25.0469,VALID,351,VALID,0,
2011-08-17, 01:45:04,VALID,1003.07,VALID,0,INVALID,163.693,VALID,0,VALID,25.0274,VALID,336,VALID,0,
2011-08-17, 01:46:04,VALID,1003.07,VALID,0,INVALID,163.716,VALID,0,VALID,25.0274,VALID,342,VALID,0,
2011-08-17, 01:47:04,VALID,1003.06,VALID,0,INVALID,163.647,VALID,0,VALID,25.006,VALID,355,VALID,0,
2011-08-17, 01:48:04,VALID,1003.06,VALID,0,INVALID,163.662,VALID,0,VALID,24.9866,VALID,348,VALID,0,
2011-08-17, 01:49:04,VALID,1003.04,VALID,0,INVALID,163.662,VALID,0,VALID,25.0079,VALID,355,VALID,0,
2011-08-17, 01:50:04,VALID,1003.02,VALID,0,INVALID,163.639,VALID,0,VALID,24.9866,VALID,284,VALID,0,
2011-08-17, 01:51:04,VALID,1003.04,VALID,0,INVALID,163.662,VALID,0,VALID,25.0079,VALID,327,VALID,0,
2011-08-17, 01:52:04,VALID,1003.04,VALID,0,INVALID,163.647,VALID,0,VALID,25.0079,VALID,340,VALID,0,
2011-08-17, 01:53:04,VALID,1003.03,VALID,0,INVALID,163.723,VALID,0,VALID,24.9866,VALID,270,VALID,0,
2011-08-17, 01:54:04,VALID,1003.03,VALID,0,INVALID,163.662,VALID,0,VALID,24.9866,VALID,348,VALID,0,
2011-08-17, 01:55:04,VALID,1003.05,VALID,0,INVALID,163.662,VALID,0,VALID,24.9885,VALID,358,VALID,0,
2011-08-17, 01:56:04,VALID,1003.01,VALID,0,INVALID,163.67,VALID,0,VALID,24.9885,VALID,351,VALID,0,
2011-08-17, 01:57:04,VALID,1003.03,VALID,0,INVALID,163.685,VALID,0,VALID,24.9885,VALID,331,VALID,0,
2011-08-17, 01:58:04,VALID,1002.98,VALID,0,INVALID,163.678,VALID,0,VALID,24.9866,VALID,351,VALID,0,
2011-08-17, 01:59:04,VALID,1002.97,VALID,0,INVALID,163.678,VALID,0,VALID,25.0255,VALID,340,VALID,0,
2011-08-17, 02:00:04,VALID,1002.93,VALID,0,INVALID,163.662,VALID,0,VALID,25.006,VALID,344,VALID,0,
2011-08-17, 02:01:04,VALID,1002.94,VALID,0,INVALID,163.655,VALID,0,VALID,24.9866,VALID,344,VALID,0,
2011-08-17, 02:02:04,VALID,1002.94,VALID,0,INVALID,163.647,VALID,0,VALID,25.0255,VALID,347,VALID,0,
2011-08-17, 02:03:04,VALID,1002.93,VALID,0,INVALID,163.708,VALID,0,VALID,25.0469,VALID,359,VALID,0,
2011-08-17, 02:04:04,VALID,1002.94,VALID,0,INVALID,163.67,VALID,0,VALID,25.0469,VALID,349,VALID,0,
2011-08-17, 02:05:04,VALID,1002.93,VALID,0,INVALID,163.67,VALID,0,VALID,25.045,VALID,354,VALID,0,
2011-08-17, 02:06:04,VALID,1002.98,VALID,0,INVALID,163.678,VALID,0,VALID,25.045,VALID,358,VALID,0,
2011-08-17, 02:07:04,VALID,1002.98,VALID,0,INVALID,163.708,VALID,0,VALID,25.045,VALID,334,VALID,0,
2011-08-17, 02:08:04,VALID,1002.99,VALID,0,INVALID,163.693,VALID,0,VALID,25.0663,VALID,345,VALID,0,
2011-08-17, 02:09:04,VALID,1002.97,VALID,0,INVALID,163.708,VALID,0,VALID,25.045,VALID,346,VALID,0,
2011-08-17, 02:10:04,VALID,1002.95,VALID,0,INVALID,163.678,VALID,0,VALID,25.0663,VALID,350,VALID,0,
2011-08-17, 02:11:04,VALID,1002.98,VALID,0,INVALID,163.647,VALID,0,VALID,25.0644,VALID,353,VALID,0,
2011-08-17, 02:12:04,VALID,1002.94,VALID,0,INVALID,163.731,VALID,0,VALID,25.1248,VALID,341,VALID,0,
2011-08-17, 02:13:04,VALID,1002.92,VALID,0,INVALID,163.655,VALID,0,VALID,25.1229,VALID,349,VALID,0,
2011-08-17, 02:14:04,VALID,1002.93,VALID,0,INVALID,163.655,VALID,0,VALID,25.1442,VALID,358,VALID,0,
2011-08-17, 02:15:04,VALID,1002.9,VALID,0,INVALID,163.647,VALID,0,VALID,25.1832,VALID,355,VALID,0,
2011-08-17, 02:16:04,VALID,1002.87,VALID,0,INVALID,163.67,VALID,0,VALID,25.1813,VALID,352,VALID,0,
2011-08-17, 02:17:04,VALID,1002.82,VALID,0,INVALID,163.655,VALID,0,VALID,25.2007,VALID,350,VALID,0,
2011-08-17, 02:18:04,VALID,1002.81,VALID,0,INVALID,163.701,VALID,0,VALID,25.2416,VALID,351,VALID,0,
2011-08-17, 02:19:04,VALID,1002.81,VALID,0,INVALID,163.632,VALID,0,VALID,25.2202,VALID,352,VALID,0,
2011-08-17, 02:20:04,VALID,1002.81,VALID,0,INVALID,163.708,VALID,0,VALID,25.2416,VALID,1,VALID,0,
2011-08-17, 02:21:04,VALID,1002.81,VALID,0,INVALID,163.716,VALID,0,VALID,25.2416,VALID,351,VALID,0,
2011-08-17, 02:22:04,VALID,1002.82,VALID,0,INVALID,163.716,VALID,0,VALID,25.2397,VALID,352,VALID,0,
2011-08-17, 02:23:04,VALID,1002.78,VALID,0,INVALID,163.685,VALID,0,VALID,25.2592,VALID,354,VALID,0,
2011-08-17, 02:24:04,VALID,1002.78,VALID,0,INVALID,163.662,VALID,0,VALID,25.2981,VALID,340,VALID,0,
2011-08-17, 02:25:04,VALID,1002.79,VALID,0,INVALID,163.632,VALID,0,VALID,25.3176,VALID,349,VALID,0,
2011-08-17, 02:26:04,VALID,1002.81,VALID,0,INVALID,163.655,VALID,0,VALID,25.3584,VALID,4,VALID,0,
2011-08-17, 02:27:04,VALID,1002.8,VALID,0,INVALID,163.624,VALID,0,VALID,25.337,VALID,13,VALID,0,
2011-08-17, 02:28:04,VALID,1002.83,VALID,0,INVALID,163.67,VALID,0,VALID,25.3565,VALID,354,VALID,0,
2011-08-17, 02:29:04,VALID,1002.8,VALID,0,INVALID,163.624,VALID,0,VALID,25.3974,VALID,347,VALID,0,
2011-08-17, 02:30:04,VALID,1002.83,VALID,0,INVALID,163.662,VALID,0,VALID,25.3955,VALID,355,VALID,0,
2011-08-17, 02:31:04,VALID,1002.86,VALID,0,INVALID,163.647,VALID,0,VALID,25.4558,VALID,359,VALID,0,
2011-08-17, 02:32:04,VALID,1002.8,VALID,0,INVALID,163.655,VALID,0,VALID,25.4753,VALID,342,VALID,0,
2011-08-17, 02:33:04,VALID,1002.82,VALID,0,INVALID,163.639,VALID,0,VALID,25.4753,VALID,3,VALID,0,
2011-08-17, 02:34:04,VALID,1002.84,VALID,0,INVALID,163.617,VALID,0,VALID,25.4539,VALID,356,VALID,0,
2011-08-17, 02:35:04,VALID,1002.85,VALID,0,INVALID,163.662,VALID,0,VALID,25.4948,VALID,356,VALID,0,
2011-08-17, 02:36:04,VALID,1002.82,VALID,0,INVALID,163.639,VALID,0,VALID,25.4753,VALID,31,VALID,0,
2011-08-17, 02:37:04,VALID,1002.78,VALID,0,INVALID,163.639,VALID,0,VALID,25.4753,VALID,350,VALID,0,
2011-08-17, 02:38:04,VALID,1002.78,VALID,0,INVALID,163.678,VALID,0.100563,VALID,25.4734,VALID,355,VALID,0,
2011-08-17, 02:39:04,VALID,1002.76,VALID,0,INVALID,163.632,VALID,0,VALID,25.4539,VALID,355,VALID,0,
2011-08-17, 02:40:04,VALID,1002.76,VALID,0,INVALID,163.662,VALID,0,VALID,25.4363,VALID,357,VALID,0,
2011-08-17, 02:41:04,VALID,1002.74,VALID,0,INVALID,163.632,VALID,0,VALID,25.4558,VALID,348,VALID,0,
2011-08-17, 02:42:04,VALID,1002.71,VALID,0,INVALID,163.639,VALID,0,VALID,25.4967,VALID,352,VALID,0,
2011-08-17, 02:43:04,VALID,1002.71,VALID,0,INVALID,163.655,VALID,0,VALID,25.4753,VALID,354,VALID,0,
2011-08-17, 02:44:04,VALID,1002.71,VALID,0,INVALID,163.632,VALID,0,VALID,25.4753,VALID,330,VALID,0,
2011-08-17, 02:45:04,VALID,1002.72,VALID,0,INVALID,163.662,VALID,0,VALID,25.5142,VALID,353,VALID,0,
2011-08-17, 02:46:04,VALID,1002.71,VALID,0,INVALID,163.662,VALID,0,VALID,25.4928,VALID,351,VALID,0,
2011-08-17, 02:47:04,VALID,1002.72,VALID,0,INVALID,163.701,VALID,0,VALID,25.5337,VALID,305,VALID,0,
2011-08-17, 02:48:04,VALID,1002.75,VALID,0,INVALID,163.632,VALID,0,VALID,25.4928,VALID,352,VALID,0,
2011-08-17, 02:49:04,VALID,1002.76,VALID,0,INVALID,163.685,VALID,0,VALID,25.5318,VALID,1,VALID,0,
2011-08-17, 02:50:04,VALID,1002.78,VALID,0,INVALID,163.624,VALID,0,VALID,25.5318,VALID,359,VALID,0,
2011-08-17, 02:51:04,VALID,1002.79,VALID,0,INVALID,163.624,VALID,0,VALID,25.5123,VALID,3,VALID,0,
2011-08-17, 02:52:04,VALID,1002.75,VALID,0,INVALID,163.693,VALID,0,VALID,25.5532,VALID,351,VALID,0,
2011-08-17, 02:53:04,VALID,1002.76,VALID,0,INVALID,163.639,VALID,0,VALID,25.5337,VALID,348,VALID,0,
2011-08-17, 02:54:04,VALID,1002.73,VALID,0,INVALID,163.655,VALID,0,VALID,25.5318,VALID,350,VALID,0,
2011-08-17, 02:55:04,VALID,1002.67,VALID,0,INVALID,163.617,VALID,0,VALID,25.5532,VALID,351,VALID,0,
2011-08-17, 02:56:04,VALID,1002.66,VALID,0,INVALID,163.632,VALID,0,VALID,25.5337,VALID,4,VALID,0,
2011-08-17, 02:57:04,VALID,1002.65,VALID,0,INVALID,163.624,VALID,0,VALID,25.5142,VALID,360,VALID,0,
2011-08-17, 02:58:04,VALID,1002.63,VALID,0,INVALID,163.639,VALID,0,VALID,25.5142,VALID,325,VALID,0,
2011-08-17, 02:59:04,VALID,1002.64,VALID,0,INVALID,163.632,VALID,0,VALID,25.4928,VALID,353,VALID,0,
2011-08-17, 03:00:04,VALID,1002.63,VALID,0,INVALID,163.655,VALID,0,VALID,25.4948,VALID,4,VALID,0,
2011-08-17, 03:01:04,VALID,1002.61,VALID,0,INVALID,163.655,VALID,0,VALID,25.4753,VALID,339,VALID,0,
2011-08-17, 03:02:04,VALID,1002.6,VALID,0,INVALID,163.617,VALID,0,VALID,25.4344,VALID,346,VALID,0,
2011-08-17, 03:03:04,VALID,1002.59,VALID,0,INVALID,163.632,VALID,0,VALID,25.4539,VALID,256,VALID,0,
2011-08-17, 03:04:04,VALID,1002.55,VALID,0,INVALID,163.647,VALID,0,VALID,25.4753,VALID,316,VALID,0,
2011-08-17, 03:05:04,VALID,1002.56,VALID,0,INVALID,163.662,VALID,0,VALID,25.4753,VALID,344,VALID,0,
2011-08-17, 03:06:04,VALID,1002.52,VALID,0,INVALID,163.639,VALID,0,VALID,25.4558,VALID,321,VALID,0,
2011-08-17, 03:07:04,VALID,1002.54,VALID,0,INVALID,163.624,VALID,0,VALID,25.3955,VALID,317,VALID,0,
2011-08-17, 03:08:04,VALID,1002.5,VALID,0,INVALID,163.647,VALID,0,VALID,25.4383,VALID,359,VALID,0,
2011-08-17, 03:09:04,VALID,1002.5,VALID,0,INVALID,163.632,VALID,0,VALID,25.3779,VALID,355,VALID,0,
2011-08-17, 03:10:04,VALID,1002.45,VALID,0,INVALID,163.624,VALID,0,VALID,25.3779,VALID,347,VALID,0,
2011-08-17, 03:11:04,VALID,1002.48,VALID,0,INVALID,163.632,VALID,0,VALID,25.3176,VALID,344,VALID,0,
2011-08-17, 03:12:04,VALID,1002.5,VALID,0,INVALID,163.647,VALID,0,VALID,25.3176,VALID,354,VALID,0,
2011-08-17, 03:13:04,VALID,1002.47,VALID,0,INVALID,163.655,VALID,0,VALID,25.3195,VALID,348,VALID,0,
2011-08-17, 03:14:04,VALID,1002.44,VALID,0,INVALID,163.632,VALID,0,VALID,25.2806,VALID,345,VALID,0,
2011-08-17, 03:15:04,VALID,1002.47,VALID,0,INVALID,163.716,VALID,0,VALID,25.2806,VALID,344,VALID,0,
2011-08-17, 03:16:04,VALID,1002.43,VALID,0,INVALID,163.601,VALID,0,VALID,25.2416,VALID,356,VALID,0,
2011-08-17, 03:17:04,VALID,1002.44,VALID,0,INVALID,163.655,VALID,0,VALID,25.2416,VALID,2,VALID,0,
2011-08-17, 03:18:04,VALID,1002.4,VALID,0,INVALID,163.647,VALID,0,VALID,25.2027,VALID,350,VALID,0,
2011-08-17, 03:19:04,VALID,1002.44,VALID,0,INVALID,163.693,VALID,0,VALID,25.2027,VALID,352,VALID,0,
2011-08-17, 03:20:04,VALID,1002.4,VALID,0,INVALID,163.639,VALID,0,VALID,25.1813,VALID,350,VALID,0,
2011-08-17, 03:21:04,VALID,1002.38,VALID,0,INVALID,163.67,VALID,0,VALID,25.2221,VALID,357,VALID,0,
2011-08-17, 03:22:04,VALID,1002.39,VALID,0,INVALID,163.708,VALID,0,VALID,25.2221,VALID,341,VALID,0,
2011-08-17, 03:23:04,VALID,1002.42,VALID,0,INVALID,163.639,VALID,0,VALID,25.2202,VALID,347,VALID,0,
2011-08-17, 03:24:04,VALID,1002.43,VALID,0,INVALID,163.639,VALID,0,VALID,25.2416,VALID,351,VALID,0,
2011-08-17, 03:25:04,VALID,1002.48,VALID,0,INVALID,163.685,VALID,0,VALID,25.2416,VALID,353,VALID,0,
2011-08-17, 03:26:04,VALID,1002.48,VALID,0,INVALID,163.655,VALID,0,VALID,25.2611,VALID,358,VALID,0,
2011-08-17, 03:27:04,VALID,1002.5,VALID,0,INVALID,163.647,VALID,0,VALID,25.2592,VALID,349,VALID,0,
2011-08-17, 03:28:04,VALID,1002.52,VALID,0,INVALID,163.632,VALID,0,VALID,25.2786,VALID,352,VALID,0,
2011-08-17, 03:29:04,VALID,1002.56,VALID,0,INVALID,163.639,VALID,0,VALID,25.2806,VALID,358,VALID,0,
2011-08-17, 03:30:04,VALID,1002.57,VALID,0,INVALID,163.647,VALID,0,VALID,25.2592,VALID,5,VALID,0,
2011-08-17, 03:31:04,VALID,1002.61,VALID,0,INVALID,163.662,VALID,0,VALID,25.2786,VALID,350,VALID,0,
2011-08-17, 03:32:04,VALID,1002.62,VALID,0,INVALID,163.632,VALID,0,VALID,25.3195,VALID,356,VALID,0,
2011-08-17, 03:33:04,VALID,1002.63,VALID,0,INVALID,163.685,VALID,0,VALID,25.2981,VALID,353,VALID,0,
2011-08-17, 03:34:04,VALID,1002.62,VALID,0,INVALID,163.655,VALID,0,VALID,25.3176,VALID,360,VALID,0,
2011-08-17, 03:35:04,VALID,1002.65,VALID,0,INVALID,163.624,VALID,0,VALID,25.3584,VALID,358,VALID,0,
2011-08-17, 03:36:04,VALID,1002.64,VALID,0,INVALID,163.632,VALID,0,VALID,25.3176,VALID,354,VALID,0,
2011-08-17, 03:37:04,VALID,1002.64,VALID,0,INVALID,163.632,VALID,0,VALID,25.339,VALID,349,VALID,0,
2011-08-17, 03:38:04,VALID,1002.59,VALID,0,INVALID,163.639,VALID,0,VALID,25.3176,VALID,352,VALID,0,
2011-08-17, 03:39:04,VALID,1002.57,VALID,0,INVALID,163.655,VALID,0,VALID,25.339,VALID,345,VALID,0,
2011-08-17, 03:40:04,VALID,1002.53,VALID,0,INVALID,163.624,VALID,0,VALID,25.339,VALID,359,VALID,0,
2011-08-17, 03:41:04,VALID,1002.52,VALID,0,INVALID,163.632,VALID,0,VALID,25.339,VALID,346,VALID,0,
2011-08-17, 03:42:04,VALID,1002.48,VALID,0,INVALID,163.617,VALID,0,VALID,25.337,VALID,324,VALID,0,
2011-08-17, 03:43:04,VALID,1002.47,VALID,0,INVALID,163.632,VALID,0,VALID,25.3779,VALID,323,VALID,0,
2011-08-17, 03:44:04,VALID,1002.47,VALID,0,INVALID,163.678,VALID,0,VALID,25.3779,VALID,345,VALID,0,
2011-08-17, 03:45:04,VALID,1002.42,VALID,0,INVALID,163.632,VALID,0,VALID,25.3779,VALID,343,VALID,0,
2011-08-17, 03:46:04,VALID,1002.44,VALID,0,INVALID,163.639,VALID,0,VALID,25.3565,VALID,350,VALID,0,
2011-08-17, 03:47:04,VALID,1002.45,VALID,0,INVALID,163.609,VALID,0,VALID,25.3565,VALID,293,VALID,0,
2011-08-17, 03:48:04,VALID,1002.43,VALID,0,INVALID,163.639,VALID,0,VALID,25.337,VALID,348,VALID,0,
2011-08-17, 03:49:04,VALID,1002.44,VALID,0,INVALID,163.624,VALID,0,VALID,25.337,VALID,356,VALID,0,
2011-08-17, 03:50:04,VALID,1002.45,VALID,0,INVALID,163.609,VALID,0,VALID,25.337,VALID,6,VALID,0,
2011-08-17, 03:51:04,VALID,1002.44,VALID,0,INVALID,163.639,VALID,0,VALID,25.3584,VALID,349,VALID,0,
2011-08-17, 03:52:04,VALID,1002.47,VALID,0,INVALID,163.632,VALID,0,VALID,25.337,VALID,358,VALID,0,
2011-08-17, 03:53:04,VALID,1002.46,VALID,0,INVALID,163.632,VALID,0,VALID,25.3779,VALID,1,VALID,0,
2011-08-17, 03:54:04,VALID,1002.48,VALID,0,INVALID,163.632,VALID,0,VALID,25.3779,VALID,343,VALID,0,
2011-08-17, 03:55:04,VALID,1002.51,VALID,0,INVALID,163.609,VALID,0,VALID,25.3974,VALID,340,VALID,0,